Regional Weather Roundup
Issued by NWS

Home | Current Version | Previous Version | Text Only | Print | Product List | Glossary On
Versions: 1 2 3 4 5 6 7 8 9 10 11 12 13 14 15 16 17 18 19 20 21 22 23 24 25 26 27 28 29 30 31 32 33 34 35 36 37 38 39 40 41 42 43 44 45 46 47 48 49 50
000
ASUS45 KREV 231710
RWRNV
NEVADA REGIONAL WEATHER ROUNDUP
NATIONAL WEATHER SERVICE RENO NV
1000 AM PDT WED JUL 23 2014

NOTE: "FAIR" INDICATES FEW OR NO CLOUDS BELOW 12,000 FEET WITH NO
SIGNIFICANT WEATHER AND/OR OBSTRUCTIONS TO VISIBILITY.

NVZ001-003-004-231800-
WESTERN NEVADA

CITY           SKY/WX    TMP DP  RH WIND       PRES   REMARKS
RENO           MOSUNNY   79  36  21 SW5       30.16F
CARSON CITY    FAIR      75  36  23 S7        30.20S
SLIDE MTN        N/A     48  32  53 W35         N/A
PYRAMID LAKE     N/A     73 N/A N/A E7          N/A
FALLON         MOSUNNY   79  42  26 N5        30.14F
LOVELOCK       SUNNY     77  46  33 CALM      30.14F
HAWTHORNE      SUNNY     79  43  27 CALM      30.16F
$$

NVZ002-CAZ072-073-231800-
NORTHERN AND CENTRAL SIERRA

CITY           SKY/WX    TMP DP  RH WIND       PRES   REMARKS
S. LAKE TAHOE  SUNNY     71  35  26 S18G29    30.29R
TRUCKEE        MOSUNNY   70  32  24 SW18G26   30.28S
SQUAW VLY 8000 NOT AVBL
SUSANVILLE     SUNNY     73  37  27 NE3       30.16F
BLUE CANYON    SUNNY     64  51  62 S14G22    30.29R
MAMMOTH LAKES  FAIR      72  28  20 SE5       30.34F
BRIDGEPORT     FAIR      71  30  21 S17G26    30.29F
$$

NVZ030-031-036-231800-
NORTHERN NEVADA

CITY           SKY/WX    TMP DP  RH WIND       PRES   REMARKS
ELKO           SUNNY     80  39  23 W3        30.17F
WINNEMUCCA     MOSUNNY   78  44  29 MISG      30.16F
WENDOVER       SUNNY     88  27  11 E10       30.13S
$$

NVZ035-037-231800-
CENTRAL NEVADA

CITY           SKY/WX    TMP DP  RH WIND       PRES   REMARKS
ELY            SUNNY     87  25  10 S20G28    30.27F
EUREKA           N/A     84  19   9 S7        30.23F
$$

NVZ013-014-231800-
SOUTH CENTRAL NEVADA

CITY           SKY/WX    TMP DP  RH WIND       PRES   REMARKS
TONOPAH        SUNNY     80  23  12 VRB6      30.24S
$$

NVZ017-020-022-231800-
SOUTHERN NEVADA

CITY           SKY/WX    TMP DP  RH WIND       PRES   REMARKS
LAS VEGAS      SUNNY     97  31   9 S8        29.96F
N. LAS VEGAS   SUNNY     96  22   7 CALM      29.99F
NELLIS AFB     SUNNY     94  30  10 S2        29.97F
HENDERSON      SUNNY     99  29   8 VRB5      30.03S
MERCURY        SUNNY     94  27   9 SW13      30.08F
$$


USA.gov is the U.S. government's official web portal to all federal, state and local government web resources and services.